Location: Columbia
(38.9520°N, 92.3340°W)
Time: 10:05:29
(UTC-05:00)

FENGYUN 3A - Visible Passes

Search period start: 27 August 2016 00:00
Search period end: 06 September 2016 00:00
Orbit: 819 x 834 km, 98.4° (Epoch: 27 August)

Date Brightness Start Highest point End Pass type
(mag) Time Alt. Az. Time Alt. Az. Time Alt. Az.
27 Aug 4.6 21:11:59 10° S 21:17:06 47° W 21:22:15 10° NNW visible
28 Aug 3.9 20:52:52 10° S 20:58:11 71° WSW 21:03:33 10° NNW visible
29 Aug 3.6 20:33:59 10° SSE 20:39:19 79° ENE 20:44:41 10° N visible
29 Aug 6.4 22:18:19 10° WSW 22:20:07 12° W 22:21:57 10° WNW visible
30 Aug 3.8 20:15:20 10° SSE 20:20:30 53° ENE 20:25:42 10° N visible
30 Aug 6.1 21:57:27 10° SW 22:01:02 18° W 22:04:39 10° NW visible
31 Aug 5.5 21:37:31 10° SSW 21:42:00 27° W 21:46:31 10° NW visible
01 Sep 4.8 21:18:00 10° SSW 21:23:01 40° W 21:28:03 10° NNW visible
02 Sep 4.1 20:58:49 10° S 21:04:05 61° W 21:09:24 10° NNW visible
03 Sep 3.6 20:39:51 10° SSE 20:45:12 89° ENE 20:50:35 10° NNW visible
04 Sep 3.7 20:21:07 10° SSE 20:26:22 61° ENE 20:31:39 10° N visible
04 Sep 6.2 22:03:51 10° SW 22:07:00 16° W 22:10:09 10° NW visible
05 Sep 4.1 20:02:37 10° SE 20:07:35 41° ENE 20:12:34 10° N visible
05 Sep 5.7 21:43:42 10° SSW 21:47:56 24° W 21:52:12 10° NW visible
